Regional Weather Roundup
Issued by NWS

Home | Current Version | Previous Version | Text Only | Print | Product List | Glossary On
Versions: 1 2 3 4 5 6 7 8 9 10 11 12 13 14 15 16 17 18 19 20 21 22 23 24 25 26 27 28 29 30 31 32 33 34 35 36 37 38 39 40 41 42 43 44 45 46 47 48 49 50
000
ASCA44 KEWX 222120
RWRMX

LATIN AMERICA AND CARIBBEAN REGIONAL WEATHER ROUNDUP
NATIONAL WEATHER SERVICE AUSTIN/SAN ANTONIO TX
400 PM CDT WED OCT 22 2014

NOTE: "FAIR" INDICATED FEW OR NO CLOUDS BELOW 12,000 FEET WITH NO
SIGNIFICANT WEATHER AND/OR OBSTRUCTIONS TO VISIBILITY.

BAJA CALIFORNIA

CITY           SKY/WX    TMP DP  RH WIND       PRES   REMARKS
LORETO         MOSUNNY   84  68  58 NE12      29.80F
LA PAZ         MOSUNNY   86  59  39 N14       29.82
MEXICALI       SUNNY     93  43  17 N5        29.87
S.J. DEL CABO  SUNNY     86  63  45 SE9       29.83
TIJUANA        SUNNY     84  55  37 W13       29.92S

NORTHWESTERN MEXICO

CITY           SKY/WX    TMP DP  RH WIND       PRES   REMARKS
CULIACAN       PTSUNNY   95  70  43 CALM      29.80  HX 101
DURANGO        MOSUNNY   75  54  46 NW5       30.12F
GUAYMAS        SUNNY     88  73  62 SW15      29.75  HX  96
HERMOSILLO     SUNNY     97  46  17 CALM      29.83  HX  93
CD. JUAREZ     MOSUNNY   77  59  53 CALM      30.04
LOS MOCHIS     SUNNY     86  66  51 SW16      29.80F
OBREGON        SUNNY     97  54  23 W5        29.76  HX  94

NORTHEASTERN MEXICO

CITY           SKY/WX    TMP DP  RH WIND       PRES   REMARKS
CHIHUAHUA      PTSUNNY   73  55  53 E9        30.11
MATAMOROS      PTSUNNY   82  73  74 NE9       29.99
MONCLOVA       CLOUDY    75  68  78 CALM      29.99F
MONTERREY      PTSUNNY   77  70  78 E9        29.99F
NUEVO LAREDO   PTSUNNY   88  61  40 E6        29.98
PIEDRAS NEGRAS   N/A    N/A N/A N/A MISG        N/A
REYNOSA        PTSUNNY   82  68  61 E7        29.95
SALTILLO       MOSUNNY   75  64  69 N17       30.12
TORREON        PTSUNNY   77  61  57 N5        30.04
CD. VICTORIA   MOSUNNY   84  66  54 N6        29.95

WESTERN MEXICO

CITY           SKY/WX    TMP DP  RH WIND       PRES   REMARKS
AGUASCALIENTES PTSUNNY   73  46  38 NE6       30.15
COLIMA         PTSUNNY   75  72  88 SW12      29.91
DEL BAJIO      PTSUNNY   77  54  44 CALM      30.17F
GUADALAJARA    PTSUNNY   79  55  44 E7        30.05
MANZANILLO       N/A    N/A N/A N/A MISG        N/A
MAZATLAN       SUNNY     88  66  48 SW12      29.76F HX  90
P. VALLARTA    PTSUNNY   86  75  70 SW6       29.77F HX  95
URUAPAN        CLOUDY    70  64  83 CALM      30.08F
ZACATECAS      MOSUNNY   72  48  43 S12       30.20

CENTRAL MEXICO

CITY           SKY/WX    TMP DP  RH WIND       PRES   REMARKS
CUERNAVACA     PTSUNNY   79  61  53 S7        29.98F
MEXICO CITY    PTSUNNY   73  48  40 N13       30.20F
MORELIA        PTSUNNY   75  54  46 CALM      30.10
POZA RICA      PTSUNNY   81  73  78 N17       29.94F
PUEBLA         CLOUDY    72  50  46 NE14      30.19F
QUERETARO      PTSUNNY   73  52  46 E20       30.18F
S. LUIS POTOSI PTSUNNY   70  50  49 NE12      30.18
TAMPICO        MOSUNNY   84  72  65 NE14      29.91F
TOLUCA         PTSUNNY   70  41  35 NE13      30.25

SOUTHERN MEXICO

CITY           SKY/WX    TMP DP  RH WIND       PRES   REMARKS
ACAPULCO       CLOUDY    81  77  89 SE3       29.78F
B. DE HUATULCO PTSUNNY   82  72  69 CALM      29.84
OAXACA         PTSUNNY   75  57  53 N9        30.06F
P. ESCONDIDO   PTSUNNY   84  75  74 W8        29.93F HX  92
VERACRUZ       PTSUNNY   82  72  69 NW14G25   29.81F
ZIHUATANEJO    PTSUNNY   86  77  74 SW6       29.81  HX  97

YUCATAN PENINSULA

CITY           SKY/WX    TMP DP  RH WIND       PRES   REMARKS
CAMPECHE       RAIN      77  77 100 N12       29.71R
CANCUN         CLOUDY    81  75  83 SE10      29.75F
CHETUMAL       PTSUNNY   86  77  74 E9        29.67F HX  97
CD. DEL CARMEN CLOUDY    81  77  89 W9        29.68  HAZE
COZUMEL        PTSUNNY   77  75  94 E8        29.75F
MERIDA         CLOUDY    82  75  78 N3        29.71F
MINATITLAN     CLOUDY    81  68  65 CALM      29.77
TAPACHULA      PTSUNNY   82  77  83 CALM      29.81S HX  91
TUX. GUTIERREZ CLOUDY    77  70  78 NE3       29.84F
VILLAHERMOSA   CLOUDY    81  75  83 W12       29.75F

CENTRAL AMERICA

CITY           SKY/WX    TMP DP  RH WIND       PRES   REMARKS
BELIZE CITY    PTSUNNY   88  79  74 SE6       29.68F HX 102
MANAGUA        PTCLDY    79  77  94 CALM      29.77

CARIBBEAN

CITY           SKY/WX    TMP DP  RH WIND       PRES   REMARKS
ARUBA          MOSUNNY   88  77  70 E18       29.77S HX 100
CURACAO        MOSUNNY   86  73  66 SE14      29.80S HX  93
KINGSTON       MOSUNNY   86  75  70 SE14      29.83S HX  95
NASSAU         PTSUNNY   84  77  79 VRB1      29.90S HX  94
SAN JUAN       MOSUNNY   86  73  66 E15       29.89R HX  93
SANTO DOMINGO  MOSUNNY   88  72  58 S6        29.86S HX  94
ST. KITTS      PTCLDY    84  75  74 NE12      29.89S HX  92
ST. MAARTEN    PTCLDY    84  73  70 E12       29.89S HX  91
ST. THOMAS     MOSUNNY   84  73  70 SE13      29.89  HX  91

$$




USA.gov is the U.S. government's official web portal to all federal, state and local government web resources and services.